Van Nuys, CA

9:53 AM PST on February 28, 2017 (GMT -0800)
Van Nuys

Weather History for KVNY - December, 2013

Change the Weather History Date:

Wednesday, December 11, 2013

  Actual Average Record
Temperature  
Mean Temperature 54 °F -  
Max Temperature 68 °F 65 °F 81 °F (2004)
Min Temperature 39 °F 44 °F 37 °F (1998)
Degree Days  
Heating Degree Days 12    
Growing Degree Days 4 (Base 50)    
Moisture  
Dew Point 10 °F    
Average Humidity 20    
Maximum Humidity 38    
Minimum Humidity 9    
Precipitation  
Precipitation 0.00 in - - ()
Sea Level Pressure  
Sea Level Pressure 30.14 in    
Wind  
Wind Speed 7 mph (NW)    
Max Wind Speed 18 mph    
Max Gust Speed 28 mph    
Visibility 10 miles    
Events      
Averages and records for this station are not official NWS values.
T = Trace of Precipitation, MM = Missing Value Source: NWS Daily Summary

Daily Weather History Graph

Daily Weather History Graph

Search for Another Location

Airport or City:

Trip Planner

Search our weather history database for the weather conditions in past years. The results will help you decide how hot, cold, wet, or windy it might be!

Date:

Astronomy

Dec. 11, 2013 Rise Set
Actual Time 6:50 AM PST 4:44 PM PST
Civil Twilight 6:22 AM PST 5:12 PM PST
Nautical Twilight 5:50 AM PST 5:43 PM PST
Astronomical Twilight 5:20 AM PST 6:14 PM PST
Moon 1:10 PM PST (12/11) 1:27 AM PST (12/11)
Length of Visible Light 10h 50m
Length of Day
9h 54m
Waxing Gibbous, 72% of the Moon is Illuminated
Dec 11
Waxing Gibbous
Dec 17
Full
Dec 25
Last Quarter
Jan 1
New
Jan 7
First Quarter

Hourly Weather History & Observations

Time (PST) Temp. Windchill Dew Point Humidity Pressure Visibility Wind Dir Wind Speed Gust Speed Precip Events Conditions
12:51 AM 43.0 °F 40.3 °F 12.0 °F 28% 30.11 in 10.0 mi West 4.6 mph - N/A   Clear
1:51 AM 41.0 °F - 12.0 °F 31% 30.12 in 10.0 mi Calm Calm - N/A   Clear
2:51 AM 39.0 °F - 12.0 °F 33% 30.12 in 10.0 mi Calm Calm - N/A   Clear
3:51 AM 42.1 °F 37.7 °F 10.9 °F 28% 30.12 in 10.0 mi WNW 6.9 mph - N/A   Clear
4:51 AM 41.0 °F 37.1 °F 12.0 °F 31% 30.11 in 10.0 mi West 5.8 mph - N/A   Clear
5:51 AM 39.9 °F 35.8 °F 12.9 °F 33% 30.12 in 10.0 mi Variable 5.8 mph - N/A   Clear
6:51 AM 39.0 °F 35.7 °F 12.9 °F 34% 30.14 in 10.0 mi West 4.6 mph - N/A   Partly Cloudy
7:51 AM 41.0 °F - 17.1 °F 38% 30.17 in 10.0 mi Calm Calm - N/A   Partly Cloudy
8:51 AM 55.9 °F - 5.0 °F 13% 30.17 in 10.0 mi North 13.8 mph 19.6 mph N/A   Clear
9:51 AM 60.1 °F - 3.9 °F 11% 30.16 in 10.0 mi North 15.0 mph 23.0 mph N/A   Clear
10:51 AM 63.0 °F - 5.0 °F 10% 30.14 in 10.0 mi North 15.0 mph - N/A   Clear
11:51 AM 64.9 °F - 5.0 °F 9% 30.12 in 10.0 mi North 16.1 mph - N/A   Clear
12:51 PM 66.9 °F - 6.1 °F 9% 30.12 in 10.0 mi North 12.7 mph - N/A   Partly Cloudy
1:51 PM 68.0 °F - 7.0 °F 9% 30.10 in 10.0 mi North 9.2 mph - N/A   Partly Cloudy
2:51 PM 66.9 °F - 7.0 °F 10% 30.10 in 10.0 mi NNW 15.0 mph - N/A   Clear
3:51 PM 64.0 °F - 7.0 °F 11% 30.11 in 10.0 mi North 18.4 mph 27.6 mph N/A   Clear
4:51 PM 60.1 °F - 8.1 °F 13% 30.12 in 10.0 mi North 12.7 mph - N/A   Clear
5:51 PM 59.0 °F - 8.1 °F 13% 30.15 in 10.0 mi NNW 8.1 mph - N/A   Clear
6:51 PM 57.9 °F - 8.1 °F 14% 30.16 in 10.0 mi Variable 4.6 mph - N/A   Clear
7:51 PM 57.9 °F - 9.0 °F 14% 30.17 in 10.0 mi NNW 11.5 mph - N/A   Clear
8:51 PM 57.9 °F - 9.0 °F 14% 30.17 in 10.0 mi NNW 8.1 mph - N/A   Clear
9:51 PM 53.1 °F - 12.9 °F 20% 30.17 in 10.0 mi West 4.6 mph - N/A   Clear
10:51 PM 50.0 °F - 15.1 °F 25% 30.17 in 10.0 mi West 3.5 mph - N/A   Clear
11:51 PM 48.9 °F - 17.1 °F 28% 30.16 in 10.0 mi West 4.6 mph - N/A   Clear